Погода в Туринске

Погода в Туринске : погода сейчас, прогноз погоды и архив. Всё, что Вы хотите узнать о погоде в Туринске!

Хотите узнать прогноз погоды в Туринске? Тогда Вам сюда: Погода в Туринске

Поиск расширенной информации на нашем сайте:

Другие новости

Новости СМИ2

Главная страница сайта

Новости сайта

03.07.2017

Напоминаем, что на нашем специализированном сайте Метеоцентр.Азия вы можете получить высокодетализированные автоматические прогнозы погоды по пунктам России, СНГ и мира в авиационном формате (включающие направление и скорость ветра, видимость, явления погоды, количество и форму облачности, нижнюю и верхнюю границу облачности).

Рекомендуем: офисные блоки на выгодных условиях аренда офиса в бизнес парке Московский шелк У метро Спортивная

Погода в Туринске - сегодня

Время (UTC), дата Ветер
(°,м/с) 
Видим.   Явления Облачность Т
(°С)
Тd
(°С)
f(%) Тe
(°С)
Pmin
(гПа)
dP
(гПа)
Po
(мм)
O2
(г/м3)
Тmin Tmax R s Состояние
почвы
06 17.08.17 330 (СЗ) 20000 м    10/3 1000 м верхняя 
[Cu hum|Ci fib]
+17.8 +10.9 64 +21  1024.5  0.3  759  285           
18 17.08.17 тихо ()   1000 м    ясно 
+10.2 +7.6 84 +10  1026.7  761  294           
00 18.08.17 310 (СЗ) 1000 м    ясно 
+6.8 +5.9 94 +8  1027.9  0.6  761  298           
06 18.08.17 030 (СВ) 20000 м    6/3 1000 м верхняя 
[Cu hum|Ci fib]
+16.3 +9 62 +18  1028.3  762  288           
12 18.08.17 360 (С) 20000 м    3/3 600 м верхняя 
[Cu hum|Ci fib]
+18.9 +6.6 45 +20  1026.3  -1.3  761  286           
18 18.08.17 250 (З) 1000 м    ясно 
+9.5 +7.6 88 +11  1025.8  -0.2  760  295           
00 19.08.17 250 (З) 1000 м    3/0 верхняя 
[Ci fib]
+8.8 +6.7 87 +10  1024.2  -0.8  759  295           
06 19.08.17 230 (ЮЗ) 20000 м    10/0 средняя 
[Ac trans]
+18.9 +12.3 65 +24  1023.1  -0.6  758  283           
12 19.08.17 280 (З) 20000 м    8/6 600 м кучево-дожд., верхняя 
[Cb calv|Ci fib]
+23 +12.7 52 +28  1021.5  -0.4  757  279           
18 19.08.17 тихо ()   1000 м    ясно 
+13.3 +12.2 93 +17  1022.4  0.5  758  289           
00 20.08.17 тихо ()   1000 м    8/0 средняя 
[Ac trans]
+13.4 +12.2 92 +17  1022.3  -0.2  757  289           
06 20.08.17 260 (З) 20000 м    ясно 
+20.7 +11.9 57 +24  1021.6  -0.6  757  281           
12 20.08.17 250 (З) 20000 м    10/10 600 м кучево-дожд. 
[Cb calv]
+18.9 +13.4 70 +26  1020.1  -1.1  756  282           
18 20.08.17 240 (ЮЗ) 1000 м    ясно 
+14.5 +13.2 92 +22  1020  756  287           
06 21.08.17 330 (СЗ) 20000 м  в посл. час туман  10/10 300 м 
[St]
+19.1 +16.3 84 +32  1021.9  0.7  757  282           
12 21.08.17 тихо ()   20000 м    6/3 600 м верхняя 
[Cu hum|Ci fib]
+24 +15.7 60 +34  1020.9  -0.3  757  277           
18 21.08.17 220 (ЮЗ) 1000 м    4/0 верхняя 
[Ci fib]
+15.9 +15 94 +25  1021.6  0.2  757  285           
00 22.08.17 тихо ()   1000 м    ясно 
+14.5 +13.6 94 +21  1022.7  0.6  758  287           
06 22.08.17 350 (С) 20000 м    ясно 
+23.4 +18.6 74 +39  1024.1  0.9  759  277           
12 22.08.17 тихо ()   20000 м    3/0 верхняя 
[Ci fib]
+27.6 +18.3 57 +42  1024  759  274           
18 22.08.17 250 (З) 1000 м  дымка  ясно 
+19.2 +18 93 +35  1025.2  0.7  760  282           
00 23.08.17 тихо ()   1000 м  дымка  ясно 
+15.5 +14.8 96 +23  1026.3  0.5  761  287           
06 23.08.17 240 (ЮЗ) 20000 м    ясно 
+26.6 +19.7 66 +44  1027  0.1  761  275           
12 23.08.17 260 (З) 20000 м    3/0 верхняя 
[Ci fib]
+27.9 +17.9 55 +42  1025.7  -0.7  760  274           
18 23.08.17 тихо ()   1000 м    4/0 верхняя 
[Ci fib]
+17.8 +16.9 94 +30  1025.5  0.1  760  284           
Время (UTC), дата Ветер
(°,м/с) 
Видим.   Явления Облачность Т
(°С)
Тd
(°С)
f(%) Тe
(°С)
Pmin
(гПа)
dP
(гПа)
Po
(мм)
O2
(г/м3)
Тmin Tmax R s Состояние
почвы

Для получения пояснительной информации подведите курсор к названию столбца.

ПОГОДА в Туринске - архив

Всё, что Вы хотите узнать о погоде в Туринске - удобно и подробно!

Выберите нужную дату (начиная с 1 января 2015* года) и нажмите кнопку "Найти".
Будут отображены архивные сводки погоды по пункту Туринск, начиная с указанной даты.


Отображать данные в формате CSV (для использования в таблицах Excel)


Внимание! Наш архив погоды предназначен исключительно для личного некоммерческого использования в познавательных целях. Если Вам необходимы официальные справки о состоянии погоды (для производственных, юридических, коммерческих и т.п. целей), обращайтесь в органы Росгидромета.

*Примечание: данная дата относится к архиву по метеостанциям СССР (Россия, СНГ, Балтия).
Архив по метеостанциям Зарубежной Европы и Азии (кроме Китая) хранится 10 дней, по другим регионам земного шара (Китай, Африка, Америка, Австралия, Океания) - 1 день.

Туринск - район местоположения метеостанции


Название, широта, долгота, высота метеостанции:
Туринск 58.1°ш. 63.7°д. 103 м над ур. моря [Российская Федерация]

Дополнительная информация

В oтличие oт бoльшинства пoгoдных сайтoв мы публикуем пoдрoбную метеoинфoрмацию в детальнoм прoфессиoнальнoм фoрмате.

Характеристики температуры и влажнoсти вoздуха измеряются на высoте 2 м в тени вдали oт зданий и деревьев.
Скoрoсть ветра измеряется на высoте 10 м (на урoвне рoста челoвека скoрoсть ветра ниже в 1.5-2 раза). Если метеoстанция нахoдится в гoрoде или в лесу, тo скoрoсть ветра занижена на 2-4 м/с пo сравнению с oткрытым местoм. Скoрoсть ветра над акватoриями крупных рек и oзёр, а также на вершинах хoлмoв на 2-5 м/с выше, чем в oбычных услoвиях.
Атмoсфернoе давление в разных тoчках местнoсти мoжет значительнo oтличаться oт давления на метеoстанции, в зависимoсти oт услoвий рельефа (при пoдъёме на 10 м давление пoнижается примернo на 1 мм рт.ст.).